{"data":{"norad_id":58054,"epoch":"2026-05-24T21:01:48.807840Z","epoch_age_seconds":79772,"freshness":"FRESH","line1":"1 58054U 23158D   26144.87625935  .00081822  00000+0  29485-2 0  9993","line2":"2 58054  43.0026 316.6285 0002038 248.6714 111.3920 15.27597073145222","mean_motion":15.27597073,"eccentricity":0.0002038,"inclination_deg":43.0026,"raan_deg":316.6285,"arg_perigee_deg":248.6714,"mean_anomaly_deg":111.392,"bstar":0.0029485,"rev_number":14522,"period_min":94.265695152978,"perigee_km":481.59967450415,"apogee_km":484.39627311948,"semimajor_km":6861.1349738118,"source":"CELESTRAK","updated_at":"2026-05-25T13:38:18.499248Z"}}